Date,TemperatureHighF,TemperatureAvgF,TemperatureLowF,DewpointHighF,DewpointAvgF,DewpointLowF,HumidityHigh,HumidityAvg,HumidityLow,PressureMaxIn,PressureMinIn,WindSpeedMaxMPH,WindSpeedAvgMPH,GustSpeedMaxMPH,PrecipitationSumIn
2013-6-1,80,57,45,65,55,44,99,94,57,30.62,30.26,0,0,0,0.00
2013-6-2,64,56,50,61,53,46,99,92,72,30.59,30.44,0,0,0,0.00
2013-6-3,55,55,51,55,55,51,99,99,99,30.50,30.42,0,0,0,0.00
2013-6-4,72,59,46,56,54,-8,99,86,10,30.45,29.89,4,1,4,1.22
2013-6-5,76,67,57,62,57,53,87,70,49,29.93,29.75,8,1,8,0.00
2013-6-6,72,62,58,61,56,53,96,81,64,29.78,29.72,4,0,4,0.00
2013-6-9,75,68,46,64,58,-8,82,71,10,30.37,29.89,14,2,14,0.00
2013-6-10,83,70,61,69,60,56,93,72,40,29.97,29.86,9,2,9,0.00
2013-6-11,91,80,46,76,67,-8,93,69,10,30.26,29.82,8,2,8,0.06
2013-6-12,94,83,70,76,71,66,92,68,46,29.90,29.62,12,3,12,0.00
2013-6-13,89,77,68,70,57,45,91,54,23,30.02,29.69,14,4,14,0.00
2013-6-14,90,74,58,60,55,49,81,54,28,30.14,29.98,9,2,9,0.00
2013-6-15,81,73,66,71,64,56,99,74,60,30.06,29.89,19,3,19,0.25
2013-6-16,88,73,64,73,68,64,99,86,48,29.98,29.91,8,1,8,0.06
2013-6-17,94,79,62,73,62,54,97,62,27,29.97,29.90,4,1,4,0.00
2013-6-18,87,75,65,64,60,54,91,61,37,30.05,29.89,11,3,11,0.00
2013-6-19,91,75,57,63,54,47,79,51,23,30.12,30.03,9,2,9,0.00
2013-6-20,97,82,65,69,60,52,86,51,26,30.14,30.05,11,3,11,0.00
2013-6-21,94,78,68,78,68,61,99,72,42,30.17,29.97,16,5,16,0.11
2013-6-22,93,80,70,76,71,64,86,75,53,30.08,29.97,17,4,17,0.00
2013-6-23,93,76,68,77,69,64,99,80,47,30.05,29.92,74,3,74,0.25
2013-6-24,84,71,65,83,70,9,99,97,14,30.13,29.89,32,3,32,4.42
2013-6-25,88,77,69,87,75,66,99,93,71,29.94,29.82,12,3,12,0.26
2013-6-26,86,76,68,84,75,10,99,98,10,29.86,29.74,11,2,11,0.40
2013-6-27,88,80,72,83,76,71,99,90,66,29.87,29.77,11,2,11,0.00
2013-6-28,88,77,66,76,64,54,99,68,36,29.82,29.68,17,4,17,0.00
2013-6-29,76,68,64,70,64,59,99,87,71,29.79,29.63,11,3,11,0.13
2013-6-30,83,71,60,66,60,48,93,70,48,30.00,29.79,11,3,11,0.17